Eagle River, WI

11:39 AM CDT on March 23, 2017 (GMT -0500)
Eagle River Union

Weather History for KEGV - September, 2014

Change the Weather History Date:

Tuesday, September 23, 2014

  Actual Average Record
Temperature  
Mean Temperature 56 °F -  
Max Temperature 73 °F 56 °F 78 °F (2007)
Min Temperature 39 °F 36 °F 28 °F (1998)
Degree Days  
Heating Degree Days 10    
Growing Degree Days 6 (Base 50)    
Moisture  
Dew Point 47 °F    
Average Humidity 77    
Maximum Humidity 100    
Minimum Humidity 34    
Precipitation  
Precipitation 0.00 in - - ()
Sea Level Pressure  
Sea Level Pressure 30.24 in    
Wind  
Wind Speed 3 mph (SW)    
Max Wind Speed 8 mph    
Max Gust Speed -    
Visibility 7 miles    
Events Fog    
Averages and records for this station are not official NWS values.
T = Trace of Precipitation, MM = Missing Value Source: NWS Daily Summary

Daily Weather History Graph

Daily Weather History Graph

Search for Another Location

Airport or City:

Trip Planner

Search our weather history database for the weather conditions in past years. The results will help you decide how hot, cold, wet, or windy it might be!

Date:

Astronomy

Sep. 23, 2014 Rise Set
Actual Time 6:45 AM CDT 6:52 PM CDT
Civil Twilight 6:15 AM CDT 7:22 PM CDT
Nautical Twilight 5:40 AM CDT 7:57 PM CDT
Astronomical Twilight 5:04 AM CDT 8:33 PM CDT
Moon 6:08 AM CDT 6:30 PM CDT
Length of Visible Light 13h 06m
Length of Day
12h 07m
Waning Crescent, 0% of the Moon is Illuminated
Sep 23
Waning Crescent
Sep 24
New
Oct 1
First Quarter
Oct 8
Full
Oct 15
Last Quarter

Hourly Weather History & Observations

Time (CDT) Temp. Windchill Dew Point Humidity Pressure Visibility Wind Dir Wind Speed Gust Speed Precip Events Conditions
12:15 AM 47.7 °F - 47.7 °F 100% 30.18 in 10.0 mi West 4.6 mph - N/A   Clear
12:35 AM 46.4 °F 43.5 °F 46.4 °F 100% 30.18 in 2.0 mi West 5.8 mph - N/A   Clear
12:55 AM 46.4 °F 44.3 °F 46.4 °F 100% 30.19 in 5.0 mi WSW 4.6 mph - N/A   Clear
1:15 AM 47.3 °F - 47.3 °F 100% 30.20 in 10.0 mi Calm Calm - N/A   Clear
1:35 AM 45.9 °F - 45.9 °F 100% 30.20 in 0.8 mi Calm Calm - N/A   Mist
1:55 AM 46.2 °F 44.1 °F 46.2 °F 100% 30.20 in 1.0 mi West 4.6 mph - N/A   Mist
2:15 AM 44.8 °F - 44.8 °F 100% 30.20 in 0.8 mi Calm Calm - N/A   Mostly Cloudy
2:35 AM 44.8 °F 43.3 °F 44.8 °F 100% 30.20 in 2.5 mi WSW 3.5 mph - N/A   Scattered Clouds
2:55 AM 45.3 °F - 45.3 °F 100% 30.20 in 1.0 mi Calm Calm - N/A   Scattered Clouds
3:15 AM 45.9 °F - 45.9 °F 100% 30.20 in 1.8 mi Calm Calm - N/A   Mist
3:35 AM 43.7 °F - 43.7 °F 100% 30.21 in 0.2 mi Calm Calm - N/A Fog Fog
3:55 AM 42.6 °F - 42.6 °F 100% 30.21 in 0.2 mi Calm Calm - N/A Fog Fog
4:15 AM 42.3 °F - 42.3 °F 100% 30.21 in 0.5 mi Calm Calm - N/A Fog Fog
4:35 AM 41.9 °F - 41.9 °F 100% 30.22 in - Calm Calm - N/A   Overcast
4:55 AM 42.3 °F - 42.3 °F 100% 30.22 in - Calm Calm - N/A   Mostly Cloudy
6:15 AM 40.1 °F - 40.1 °F 100% 30.24 in 1.0 mi Calm Calm - N/A   Overcast
6:35 AM 39.4 °F - 39.4 °F 100% 30.24 in 0.5 mi Calm Calm - N/A Fog Fog
6:55 AM 39.0 °F - 39.0 °F 100% 30.25 in 0.2 mi Calm Calm - N/A Fog Fog
7:15 AM 39.9 °F - 39.9 °F 100% 30.25 in 0.2 mi Calm Calm - N/A Fog Fog
7:35 AM 40.3 °F - 40.3 °F 100% 30.25 in 0.5 mi Calm Calm - N/A Fog Fog
7:55 AM 43.7 °F - 43.7 °F 100% 30.25 in 3.0 mi Calm Calm - N/A   Scattered Clouds
8:15 AM 48.0 °F - 48.0 °F 100% 30.26 in 10.0 mi Calm Calm - N/A   Clear
8:35 AM 50.2 °F - 50.2 °F 100% 30.26 in 10.0 mi SW 3.5 mph - N/A   Clear
8:55 AM 52.9 °F - 52.9 °F 100% 30.26 in 10.0 mi Calm Calm - N/A   Clear
9:15 AM 54.5 °F - 54.5 °F 100% 30.27 in 10.0 mi Calm Calm - N/A   Clear
9:35 AM 58.8 °F - 51.3 °F 76% 30.27 in 10.0 mi SW 3.5 mph - N/A   Clear
9:55 AM 61.2 °F - 50.0 °F 67% 30.27 in 10.0 mi Calm Calm - N/A   Clear
10:15 AM 63.7 °F - 50.7 °F 63% 30.27 in 10.0 mi WSW 3.5 mph - N/A   Clear
10:35 AM 65.5 °F - 50.4 °F 58% 30.27 in 10.0 mi WSW 6.9 mph - N/A   Clear
10:55 AM 66.2 °F - 48.7 °F 53% 30.27 in 10.0 mi West 6.9 mph - N/A   Clear
11:15 AM 66.6 °F - 50.0 °F 55% 30.27 in 10.0 mi SW 5.8 mph - N/A   Clear
11:35 AM 67.5 °F - 49.1 °F 52% 30.27 in 10.0 mi SW 6.9 mph - N/A   Clear
12:15 PM 68.7 °F - 48.4 °F 48% 30.27 in 10.0 mi SSW 5.8 mph - N/A   Clear
12:35 PM 69.8 °F - 48.4 °F 46% 30.27 in 10.0 mi SW 4.6 mph - N/A   Clear
12:55 PM 70.0 °F - 48.4 °F 46% 30.27 in 10.0 mi West 5.8 mph - N/A   Clear
1:15 PM 70.5 °F - 47.7 °F 44% 30.26 in 10.0 mi West 5.8 mph - N/A   Clear
1:35 PM 70.7 °F - 47.3 °F 43% 30.26 in 10.0 mi SW 4.6 mph - N/A   Clear
1:55 PM 71.4 °F - 46.4 °F 41% 30.26 in 10.0 mi SSW 5.8 mph - N/A   Clear
2:15 PM 71.8 °F - 45.1 °F 38% 30.25 in 10.0 mi South 6.9 mph - N/A   Clear
2:35 PM 72.5 °F - 42.3 °F 34% 30.24 in 10.0 mi South 4.6 mph - N/A   Clear
2:55 PM 72.3 °F - 44.2 °F 36% 30.24 in 10.0 mi SW 4.6 mph - N/A   Clear
3:15 PM 72.9 °F - 44.4 °F 36% 30.24 in 10.0 mi SW 8.1 mph - N/A   Clear
3:35 PM 72.7 °F - 44.4 °F 36% 30.24 in 10.0 mi SW 5.8 mph - N/A   Clear
3:55 PM 72.9 °F - 45.0 °F 37% 30.23 in 10.0 mi WSW 8.1 mph - N/A   Clear
4:15 PM 72.5 °F - 45.1 °F 37% 30.23 in 10.0 mi SSW 5.8 mph - N/A   Clear
4:35 PM 71.8 °F - 43.5 °F 36% 30.22 in 10.0 mi South 4.6 mph - N/A   Clear
4:55 PM 71.8 °F - 44.1 °F 37% 30.22 in 10.0 mi SSW 4.6 mph - N/A   Clear
5:15 PM 71.1 °F - 44.2 °F 38% 30.22 in 10.0 mi SW 4.6 mph - N/A   Clear
5:35 PM 70.5 °F - 45.5 °F 41% 30.23 in 10.0 mi SSW 3.5 mph - N/A   Clear
5:55 PM 69.6 °F - 45.9 °F 43% 30.23 in 10.0 mi Calm Calm - N/A   Clear
6:15 PM 68.2 °F - 46.6 °F 46% 30.23 in 10.0 mi Calm Calm - N/A   Clear
6:35 PM 65.7 °F - 47.7 °F 52% 30.23 in 10.0 mi Calm Calm - N/A   Clear
6:55 PM 58.5 °F - 50.9 °F 76% 30.23 in 10.0 mi Calm Calm - N/A   Clear
7:15 PM 56.8 °F - 50.2 °F 78% 30.23 in 10.0 mi Calm Calm - N/A   Clear
7:35 PM 54.7 °F - 49.6 °F 83% 30.24 in 10.0 mi Calm Calm - N/A   Clear
7:55 PM 53.6 °F - 52.2 °F 95% 30.24 in 10.0 mi Calm Calm - N/A   Clear
8:15 PM 51.6 °F - 50.9 °F 97% 30.25 in 10.0 mi Calm Calm - N/A   Clear
8:35 PM 52.0 °F - 51.6 °F 99% 30.25 in 10.0 mi Calm Calm - N/A   Clear
8:55 PM 50.0 °F - 49.5 °F 98% 30.25 in 10.0 mi Calm Calm - N/A   Clear
9:15 PM 49.3 °F - 49.1 °F 99% 30.25 in 10.0 mi Calm Calm - N/A   Clear
9:35 PM 48.7 °F - 48.7 °F 100% 30.25 in 7.0 mi Calm Calm - N/A   Clear
9:55 PM 47.8 °F - 47.8 °F 100% 30.26 in 10.0 mi Calm Calm - N/A   Clear
10:15 PM 46.9 °F - 46.9 °F 100% 30.26 in 1.5 mi Calm Calm - N/A   Mist
10:35 PM 46.8 °F - 46.8 °F 100% 30.26 in 10.0 mi Calm Calm - N/A   Clear
10:55 PM 46.8 °F - 46.8 °F 100% 30.27 in 7.0 mi Calm Calm - N/A   Clear
11:15 PM 46.6 °F - 46.6 °F 100% 30.27 in 10.0 mi Calm Calm - N/A   Clear
11:35 PM 46.6 °F - 46.6 °F 100% 30.28 in 10.0 mi Calm Calm - N/A   Clear
11:55 PM 46.4 °F - 46.4 °F 100% 30.28 in 3.0 mi Calm Calm - N/A   Clear